Temperature
19 19 20 20 20 20 20 20 19 19 20 20 20 20 19 19 19 19 19 19 19 19 19 19 19 19 18 18 18 18 18 18 18 18 18 18 18 18 18 18 18 18 18
20 20 20 20 20 20 20 19 19 19 19 19 19 19 19 19 19 19 19 19 19 19 19 19 19 18 18 18 18 18 18 18 18 18 18 18 18 18 18 18 18 18 18
20 20 20 20 20 20 20 20 19 19 19 19 19 19 19 19 19 19 19 19 19 19 19 19 19 18 18 18 18 18 18 18 18 18 18 18 18 18 18 18 18 18 18
20 20 20 20 20 20 19 20 19 19 19 19 19 19 19 19 19 19 19 19 19 19 19 19 19 18 18 18 18 18 18 18 18 18 18 18 18 18 18 18 18 18 18
20 20 20 20 20 20 19 19 19 19 19 19 19 19 19 19 19 19 19 19 19 19 19 19 18 18 18 18 18 18 18 18 18 18 18 18 18 18 18 18 18 18 18
20 20 20 20 20 20 20 19 19 19 19 19 19 19 19 19 19 19 19 19 19 19 19 18 18 18 18 18 18 18 18 18 18 18 18 18 18 18 18 18 18 18 18
20 20 20 20 20 20 19 19 19 19 19 19 19 19 19 19 19 19 19 19 19 19 19 19 18 18 18 18 18 18 18 18 18 18 18 18 18 18 18 18 18 17 17
20 20 20 20 20 20 20 19 19 19 20 19 19 19 19 19 19 19 19 19 19 19 19 19 19 18 18 18 18 18 18 18 18 18 18 18 18 18 18 18 18 17 17
20 20 20 20 20 20 20 19 19 19 19 19 19 19 19 19 19 19 19 19 19 19 19 19 19 18 18 18 18 18 18 18 18 18 18 18 18 18 18 18 18 17 17
20 20 20 20 20 20 20 19 19 19 19 19 19 19 19 19 19 19 19 19 19 19 19 19 19 18 18 18 18 18 18 18 18 18 18 18 18 18 18 18 17 17 17
20 20 20 20 20 20 20 19 19 19 19 19 19 19 19 19 19 19 19 19 19 19 19 19 19 18 18 18 18 18 18 18 18 18 18 18 18 18 18 18 17 17 17
20 20 20 20 20 19 19 19 19 19 19 19 19 19 19 19 19 19 19 19 19 19 19 18 18 18 18 18 18 18 18 18 18 18 18 18 18 18 18 18 18 17 17
20 20 20 20 20 20 20 19 19 19 19 19 19 19 19 19 19 19 19 19 19 19 19 18 18 18 18 18 18 18 18 18 18 18 18 18 18 18 18 18 18 17 17
20 20 20 20 20 20 20 19 19 19 19 19 19 19 19 19 19 19 19 19 19 19 19 18 18 18 18 18 18 18 18 18 18 18 18 18 18 18 18 18 18 17 17
20 20 20 20 20 20 20 19 19 19 19 19 19 19 19 19 19 19 19 19 19 18 18 18 18 18 18 18 18 18 18 18 18 18 18 18 17 17 17 18 18 17 17
20 20 20 20 20 20 20 20 19 19 19 19 19 19 19 19 19 19 19 19 19 19 18 18 18 18 18 18 18 18 18 18 18 18 18 18 18 17 17 18 18 17 17
20 20 20 20 20 20 20 20 19 19 19 19 19 19 19 19 19 19 19 19 19 19 18 18 18 18 18 18 18 18 18 18 18 18 18 18 18 18 17 18 17 17 17
21 20 20 20 20 20 20 20 19 19 19 19 19 19 19 19 19 19 19 19 19 19 18 18 18 18 18 18 18 18 18 18 18 18 18 18 18 18 18 17 17 17 17
21 21 20 20 20 20 20 20 19 19 19 19 19 19 19 19 19 19 19 19 19 18 18 18 18 18 18 18 18 18 18 18 18 18 18 18 18 18 17 17 17 17 17
21 21 21 20 20 20 20 20 19 19 19 19 19 19 19 19 19 19 19 19 19 19 18 18 18 18 18 18 18 18 18 18 18 18 18 18 17 17 17 17 17 17 17
21 21 21 20 20 20 20 20 19 19 19 19 19 19 19 19 19 19 19 19 19 19 19 18 18 18 18 18 18 18 18 18 18 18 18 18 18 17 17 17 17 17 17
21 21 21 20 20 20 20 20 20 19 19 19 19 19 19 19 19 19 19 19 19 19 19 19 18 18 18 18 18 18 18 18 18 18 18 18 17 17 17 17 17 17 17
22 21 21 21 20 20 20 20 19 19 19 19 19 19 19 19 19 19 19 19 19 19 19 19 18 18 18 18 18 18 18 17 17 18 18 18 17 17 17 17 17 17 17
22 22 21 21 21 20 20 20 20 19 19 19 19 19 19 19 19 19 19 19 19 19 19 19 18 18 18 18 18 18 18 18 17 17 17 17 17 17 17 17 17 17 17
22 22 21 21 21 20 20 20 20 20 19 19 19 19 19 19 19 19 19 19 19 19 19 19 18 18 18 18 18 18 18 18 18 17 17 17 17 17 17 17 17 17 17
22 22 22 21 21 21 20 20 20 20 20 19 19 19 19 19 19 19 19 19 19 19 19 18 18 18 18 18 18 18 18 17 17 17 17 17 17 17 17 17 17 17 17
Wind_Speed
1 3 8 10 12 13 13 13 13 14 15 15 15 16 17 18 18 18 19 19 18 17 17 16 15 15 15 15 15 15 15 14 14 13 13 13 13 12 12 12 12 11 12
4 5 10 12 13 14 14 14 14 14 15 15 15 16 16 17 17 17 18 17 17 17 16 16 15 14 14 15 14 14 14 13 13 12 12 11 11 11 11 11 11 10 11
7 7 10 12 13 14 14 14 14 14 15 15 15 16 16 16 16 17 17 17 17 17 16 15 15 15 14 14 13 12 13 12 12 11 10 8 9 10 10 11 11 10 10
9 8 10 12 13 13 13 13 14 14 14 15 15 15 16 16 16 16 16 16 16 16 15 15 14 14 13 12 12 11 11 11 10 9 7 6 6 8 9 9 9 9 9
8 8 10 12 13 13 13 13 13 14 14 14 15 15 15 15 15 16 16 16 15 15 15 15 14 13 12 11 11 10 9 8 8 7 6 6 6 7 8 8 8 8 8
7 8 10 11 12 12 12 12 13 13 13 13 14 14 14 15 14 15 15 15 15 14 14 14 13 12 11 11 10 9 8 8 6 6 6 6 6 7 7 8 8 7 7
7 7 9 10 12 13 13 12 12 13 13 13 13 13 14 14 14 13 13 14 14 14 14 13 12 11 11 10 9 8 7 7 6 5 5 6 7 7 7 8 7 7 7
7 6 8 11 13 13 13 12 12 12 12 13 13 13 13 13 13 12 12 13 13 12 12 12 11 10 9 9 8 6 6 6 6 5 6 7 7 8 7 8 8 7 7
7 6 5 7 9 11 12 12 12 12 12 12 12 12 12 12 12 12 12 11 11 12 11 11 10 9 8 8 7 6 6 6 5 5 6 6 8 9 8 8 8 8 7
6 5 4 5 6 7 9 11 11 11 11 11 11 11 10 10 10 10 10 10 10 10 10 9 9 8 7 7 7 6 5 5 5 5 5 7 8 9 9 9 8 8 7
6 4 4 4 5 6 7 9 10 10 10 9 9 9 8 6 6 6 8 9 10 10 9 9 8 7 6 6 6 6 5 5 6 5 6 8 9 9 9 9 8 8 7
6 4 4 4 4 5 6 7 7 7 7 6 6 6 6 5 5 5 7 8 9 8 8 8 7 6 5 4 5 4 3 5 6 5 7 9 9 9 9 9 8 8 7
6 5 4 4 4 5 4 5 5 5 5 5 5 6 6 5 4 3 3 5 5 6 5 5 5 4 3 3 3 3 4 5 5 5 7 10 10 10 9 9 8 8 6
6 5 4 4 4 4 5 4 5 4 4 3 4 6 5 3 3 3 2 3 3 3 3 3 2 3 4 4 4 4 4 5 6 6 7 9 10 9 9 8 8 7 6
7 6 5 5 4 4 4 3 4 4 4 4 4 5 6 4 3 3 2 3 3 3 3 2 2 3 3 3 4 4 5 6 6 7 7 9 9 9 8 8 8 8 7
7 6 5 5 4 4 3 3 3 4 4 4 4 4 5 5 4 3 3 2 2 3 3 3 3 2 2 2 2 3 5 6 6 7 7 8 9 9 9 9 8 8 8
8 7 7 6 4 4 4 4 4 5 5 3 3 4 5 5 5 4 3 2 2 3 3 2 2 2 2 2 2 2 3 4 5 6 7 7 7 8 9 9 9 8 8
9 8 7 7 5 4 4 3 3 4 5 4 4 4 5 5 5 4 3 2 3 3 2 2 2 2 1 1 1 1 2 3 4 6 7 7 7 7 8 10 9 9 9
10 9 7 6 6 4 3 3 3 4 4 4 4 3 4 4 4 4 3 2 3 2 1 2 2 2 1 1 1 1 1 2 3 4 5 6 7 7 7 7 9 9 9
9 9 8 7 6 5 3 3 3 2 2 2 3 3 4 4 4 4 3 2 3 2 1 1 2 1 1 2 2 1 1 1 2 2 4 5 6 6 6 6 6 7 8
9 8 7 7 6 5 3 3 2 2 1 1 2 3 4 4 4 4 2 2 2 2 2 2 2 2 1 1 1 1 2 1 1 2 2 2 3 5 6 6 5 5 5
10 9 8 8 7 5 4 3 3 2 2 2 2 2 4 4 4 4 3 3 2 2 2 1 2 1 1 2 3 2 1 3 3 2 2 3 3 3 4 6 6 6 6
11 10 9 8 7 6 5 3 2 2 1 1 1 1 2 4 4 3 4 3 2 3 2 2 2 2 1 1 2 3 2 3 2 2 2 2 2 3 3 5 6 7 7
12 10 9 9 8 7 6 5 5 4 3 3 3 2 2 2 3 3 3 3 2 2 2 2 2 2 2 1 1 1 3 4 2 1 2 2 2 3 4 4 5 6 7
12 11 9 9 8 7 6 6 5 4 3 2 2 2 2 1 2 3 3 3 3 3 3 2 2 2 2 3 2 1 1 1 2 2 2 2 2 2 3 4 4 4 7
10 10 9 9 8 7 7 6 6 6 5 4 3 3 2 1 1 2 2 3 3 3 3 3 2 3 3 2 2 2 2 2 2 3 3 3 2 2 2 2 3 4 6
Wind_Direction
131 129 123 121 117 113 110 106 107 108 107 107 108 110 114 119 123 127 129 130 131 133 132 132 131 131 131 129 126 123 123 123 121 123 124 124 122 122 123 121 118 114 118
143 128 123 121 119 116 113 110 108 109 110 110 111 114 116 120 123 126 129 130 132 132 131 131 129 129 129 128 127 125 124 122 120 119 119 119 123 123 125 128 124 123 126
125 124 121 120 118 116 113 112 111 111 111 112 114 116 118 119 122 125 128 130 131 130 130 132 128 129 128 127 127 125 123 120 119 116 113 111 117 123 128 130 131 129 129
127 125 123 121 119 117 116 114 113 113 113 114 116 119 120 119 122 127 127 128 129 131 130 128 128 129 128 129 130 127 125 122 120 118 116 118 121 125 132 133 135 136 136
119 121 124 121 121 121 119 118 117 116 116 116 117 122 121 122 123 126 127 128 129 132 133 132 132 135 134 134 132 130 128 124 122 118 119 123 124 130 130 134 140 142 144
118 125 127 127 128 127 126 124 122 121 120 120 120 122 122 125 126 128 130 131 132 135 135 136 137 137 138 139 138 136 134 129 124 122 125 128 134 137 138 141 140 145 152
124 128 129 129 135 135 131 129 125 122 122 122 122 120 122 124 126 129 132 133 135 137 138 140 141 142 145 146 142 140 139 135 130 132 141 142 146 146 148 148 146 152 156
131 128 126 127 135 135 134 133 130 126 126 127 127 126 127 128 131 133 136 139 140 142 142 145 149 151 152 153 150 148 144 142 145 143 144 149 153 154 157 155 155 162 166
125 121 122 126 129 132 134 136 136 136 134 133 131 131 132 136 139 142 145 147 146 146 149 152 157 160 159 157 158 158 147 144 144 147 156 158 162 165 165 163 162 164 165
119 120 123 125 128 132 136 138 140 142 141 139 136 137 138 141 144 151 154 154 154 156 157 160 167 169 166 164 166 164 154 142 148 152 164 174 173 174 174 171 174 173 175
127 134 136 139 135 137 142 142 145 144 144 139 137 141 141 139 143 153 161 164 163 166 167 172 176 179 182 183 183 178 158 148 151 158 171 177 180 182 179 176 178 178 183
139 145 141 137 135 143 142 137 141 143 144 141 141 140 143 142 150 160 168 169 170 175 179 182 186 189 200 199 194 190 162 155 158 169 180 183 187 188 184 184 184 182 186
145 138 129 130 129 128 121 132 138 142 147 146 144 146 145 144 147 145 150 162 172 182 187 186 188 199 209 202 196 184 163 158 164 180 185 184 189 189 189 190 187 187 192
129 127 124 119 116 118 122 131 139 145 147 149 157 152 143 139 145 153 154 163 171 186 183 188 193 196 201 199 189 171 165 161 167 177 185 188 193 194 194 195 193 192 194
133 132 128 121 119 116 108 128 136 141 144 155 150 150 152 143 146 156 166 164 173 179 181 181 189 189 187 192 185 172 170 174 170 173 183 191 199 201 200 198 197 196 195
145 145 139 127 124 114 115 122 128 144 152 149 147 154 155 155 158 151 145 153 163 174 173 175 178 175 178 173 183 176 174 175 175 174 182 193 202 205 204 202 201 200 199
150 150 148 142 132 125 120 123 126 141 137 139 149 149 147 148 152 147 143 145 161 166 151 148 141 135 142 155 173 183 179 176 177 181 184 191 201 208 208 203 204 202 195
149 149 154 149 139 134 128 126 126 138 139 147 150 146 148 148 149 140 135 151 170 159 146 134 136 134 159 171 192 214 194 186 188 190 188 194 201 210 211 209 207 203 199
155 150 149 144 146 145 131 121 123 132 138 149 148 143 158 160 150 143 141 159 150 134 131 163 144 151 170 180 197 217 220 199 197 198 195 201 205 208 206 212 211 205 206
154 151 146 145 150 145 128 104 97 105 120 137 156 170 169 167 157 146 144 150 136 126 133 132 154 160 176 184 190 216 248 217 192 201 205 202 201 200 198 198 200 208 211
154 152 150 152 158 146 135 131 124 143 160 160 187 182 174 168 159 152 150 144 140 151 166 154 152 147 172 140 100 5 341 331 231 222 206 191 196 194 184 186 187 189 199
166 163 158 162 163 160 162 161 160 163 173 178 183 178 180 167 165 167 158 164 162 153 144 130 134 139 204 153 147 125 352 340 316 260 209 195 198 183 184 193 193 193 198
173 173 171 170 169 171 167 148 125 87 65 83 157 192 201 179 172 165 164 169 165 161 175 186 162 155 202 256 169 158 168 224 288 315 264 217 201 195 196 187 195 200 197
180 177 171 171 172 173 165 160 165 167 182 205 199 198 210 183 170 166 169 168 163 157 177 196 160 165 168 228 257 223 198 174 176 275 316 279 233 214 211 200 194 197 199
177 175 174 171 173 174 174 175 173 184 197 203 181 183 207 211 186 180 174 166 169 172 186 185 166 165 180 195 215 230 229 200 171 179 251 288 296 256 223 201 191 193 201
175 174 173 172 180 179 178 179 180 186 189 184 190 191 209 217 236 221 177 170 176 183 190 195 196 188 196 201 209 195 183 182 203 187 217 243 254 265 244 211 201 203 203
Height
1515 1514 1512 1511 1511 1511 1511 1510 1510 1511 1511 1511 1511 1512 1513 1515 1517 1519 1520 1522 1524 1526 1528 1529 1531 1533 1535 1536 1538 1540 1541 1543 1544 1545 1545 1546 1547 1548 1548 1549 1550 1551 1551
1515 1514 1513 1513 1512 1512 1512 1512 1512 1513 1513 1514 1514 1515 1516 1517 1519 1520 1522 1524 1525 1527 1529 1530 1532 1533 1535 1537 1539 1541 1542 1544 1544 1545 1546 1547 1548 1549 1549 1550 1550 1551 1552
1516 1515 1514 1514 1514 1514 1514 1514 1514 1514 1515 1515 1516 1517 1518 1519 1521 1522 1524 1525 1527 1528 1530 1531 1533 1534 1537 1539 1540 1542 1543 1545 1546 1547 1547 1548 1549 1549 1550 1550 1551 1552 1553
1516 1516 1515 1515 1514 1515 1515 1515 1516 1516 1517 1517 1518 1519 1520 1521 1522 1523 1525 1527 1528 1530 1531 1533 1534 1536 1538 1540 1542 1543 1544 1545 1547 1548 1548 1549 1549 1550 1550 1551 1551 1552 1553
1517 1517 1516 1516 1515 1516 1516 1517 1518 1518 1519 1519 1519 1521 1522 1523 1524 1526 1527 1529 1530 1532 1533 1534 1536 1538 1539 1541 1543 1544 1545 1547 1548 1548 1549 1549 1550 1550 1551 1551 1552 1552 1553
1518 1517 1517 1516 1515 1516 1517 1518 1519 1520 1520 1521 1522 1523 1524 1525 1526 1528 1529 1531 1532 1533 1535 1536 1538 1539 1541 1542 1544 1545 1546 1547 1548 1549 1550 1550 1550 1551 1551 1552 1552 1553 1553
1518 1518 1517 1514 1513 1515 1517 1519 1520 1521 1522 1523 1524 1525 1526 1527 1528 1529 1531 1532 1533 1535 1536 1538 1539 1541 1542 1543 1545 1546 1547 1548 1549 1550 1550 1551 1551 1551 1551 1552 1552 1552 1553
1520 1519 1518 1514 1513 1516 1518 1520 1521 1523 1524 1525 1526 1527 1528 1528 1529 1531 1532 1534 1535 1537 1538 1540 1541 1542 1543 1544 1545 1547 1548 1548 1549 1550 1550 1551 1551 1552 1552 1552 1552 1553 1553
1522 1521 1520 1518 1518 1519 1520 1521 1523 1524 1526 1527 1527 1529 1529 1530 1531 1532 1534 1536 1537 1538 1539 1541 1542 1543 1544 1545 1546 1547 1548 1549 1549 1550 1551 1551 1552 1552 1552 1552 1552 1553 1553
1523 1523 1522 1521 1520 1521 1522 1523 1525 1526 1528 1528 1529 1530 1531 1532 1533 1534 1535 1537 1538 1539 1541 1542 1543 1544 1545 1546 1547 1548 1549 1549 1550 1550 1551 1551 1552 1552 1552 1552 1552 1552 1552
1525 1524 1524 1523 1523 1523 1524 1525 1526 1528 1529 1530 1531 1532 1533 1534 1534 1535 1536 1538 1539 1540 1542 1543 1544 1545 1546 1547 1547 1548 1549 1549 1550 1550 1551 1551 1551 1552 1552 1551 1552 1552 1552
1526 1526 1525 1525 1525 1525 1526 1527 1528 1530 1531 1532 1533 1534 1535 1535 1536 1536 1538 1539 1540 1541 1543 1544 1544 1545 1546 1547 1547 1548 1549 1549 1550 1550 1550 1551 1551 1551 1551 1551 1551 1551 1551
1527 1527 1527 1527 1528 1528 1528 1530 1530 1531 1532 1533 1534 1535 1536 1536 1537 1538 1539 1540 1541 1542 1543 1544 1545 1545 1546 1546 1547 1548 1549 1549 1549 1550 1550 1550 1551 1551 1551 1550 1551 1551 1550
1528 1529 1529 1529 1530 1530 1531 1531 1532 1533 1534 1535 1535 1536 1537 1537 1538 1539 1540 1541 1542 1543 1544 1544 1545 1545 1545 1546 1546 1547 1548 1548 1549 1549 1549 1550 1550 1550 1550 1550 1550 1550 1550
1530 1530 1531 1531 1532 1532 1532 1533 1534 1535 1536 1536 1536 1537 1537 1537 1538 1539 1540 1541 1542 1543 1544 1544 1544 1545 1545 1545 1546 1547 1547 1548 1548 1549 1549 1549 1549 1550 1549 1549 1549 1549 1549
1531 1532 1532 1533 1533 1534 1534 1535 1536 1537 1537 1537 1538 1538 1538 1538 1538 1539 1540 1541 1542 1543 1544 1544 1544 1544 1545 1545 1545 1546 1547 1547 1548 1548 1549 1549 1549 1549 1549 1548 1549 1549 1548
1531 1532 1533 1534 1535 1535 1536 1537 1537 1538 1538 1538 1539 1539 1539 1538 1539 1539 1541 1541 1542 1543 1543 1544 1544 1544 1545 1545 1545 1546 1546 1547 1547 1548 1548 1548 1548 1548 1548 1548 1548 1548 1548
1531 1533 1534 1535 1536 1536 1537 1538 1538 1539 1539 1539 1540 1540 1540 1540 1540 1540 1541 1542 1542 1543 1544 1544 1544 1544 1545 1545 1545 1546 1546 1546 1547 1547 1547 1548 1547 1547 1547 1547 1547 1547 1547
1531 1533 1534 1535 1536 1537 1538 1539 1539 1540 1540 1541 1541 1541 1541 1541 1541 1541 1541 1542 1543 1543 1544 1544 1544 1544 1544 1544 1545 1545 1546 1546 1546 1546 1546 1547 1546 1546 1546 1546 1546 1546 1546
1531 1533 1534 1535 1537 1538 1538 1539 1540 1540 1541 1541 1541 1541 1541 1542 1542 1542 1542 1542 1543 1543 1543 1544 1544 1544 1544 1544 1545 1545 1545 1545 1545 1545 1545 1545 1545 1545 1545 1545 1545 1545 1545
1531 1532 1534 1535 1537 1538 1538 1539 1540 1540 1541 1541 1542 1542 1542 1542 1542 1542 1542 1543 1543 1543 1543 1543 1543 1543 1544 1544 1544 1544 1544 1544 1544 1544 1544 1544 1544 1544 1544 1544 1544 1544 1544
1530 1531 1533 1535 1536 1537 1538 1539 1540 1540 1541 1541 1541 1542 1542 1542 1542 1542 1542 1542 1542 1542 1542 1543 1543 1543 1543 1544 1544 1543 1543 1544 1542 1543 1543 1543 1542 1542 1542 1542 1542 1542 1542
1529 1530 1532 1534 1535 1536 1538 1539 1540 1540 1540 1541 1540 1541 1541 1541 1541 1541 1541 1541 1541 1541 1541 1542 1542 1542 1542 1543 1543 1543 1542 1541 1541 1542 1541 1541 1541 1541 1541 1541 1541 1540 1540
1527 1529 1531 1533 1534 1536 1537 1538 1538 1539 1539 1539 1540 1540 1541 1541 1541 1541 1541 1540 1541 1541 1541 1541 1541 1541 1541 1541 1541 1541 1541 1540 1540 1540 1540 1540 1540 1539 1539 1539 1539 1538 1538
1526 1528 1530 1532 1533 1535 1536 1537 1537 1538 1538 1539 1539 1539 1540 1540 1540 1540 1540 1540 1539 1539 1539 1539 1540 1539 1539 1539 1539 1539 1538 1538 1538 1538 1538 1538 1538 1538 1538 1537 1537 1536 1536
1524 1526 1528 1530 1532 1533 1534 1535 1536 1536 1537 1537 1538 1538 1538 1538 1538 1538 1538 1538 1538 1538 1538 1538 1538 1538 1538 1537 1537 1537 1536 1536 1536 1536 1536 1536 1536 1536 1536 1535 1535 1534 1534